Location: Unspecified
(0.0000°N, 0.0000°E)
Time: 23:39:22
(UTC+00:00)

Envisat - Pass Details

Date: 17 January 2022
Orbit: 764 x 766 km, 98.2° (Epoch: 27 January)

Event Time Altitude Azimuth Distance (km) Brightness Sun altitude
Rises 05:06:06 0° 353° (N) 3,212 5.9 -14.9°
Reaches altitude 10° 05:08:37 10° 343° (NNW) 2,290 5.1 -14.3°
Maximum altitude 05:13:00 30° 282° (WNW) 1,331 3.7 -13.3°
Drops below altitude 10° 05:17:25 10° 221° (SW) 2,299 5.3 -12.3°
Sets 05:19:59 0° 211° (SSW) 3,228 6.1 -11.7°
